Погода в Колхапуре

Индия     16°41′49″N   74°13′53″E
темп.,
°C
ветер,
м/с
пор.,
м/с
влажн.,
%
обл.,
%
осадки,
мм/ч
давл.,
гПа
погр.,
м
6 марта, сб
сб623:30+22юз22640 0.0 101430
02:30+21зюз11680 0.0 101323
05:30+20зсз12590 0.0 101323
08:30+25зюз11410 0.0 1016139
11:30+33ююв32150 0.0 10152131
14:30+36юв12110 0.0 10113047
17:30+33з43200 0.0 10101870
20:30+25з47580 0.0 1012224
7 марта, вс
вс723:30+22з23670 0.0 101355
02:30+21зсз11540 0.0 101123
05:30+20з11470 0.0 101123
08:30+26ссз12320 0.0 1014180
11:30+33св33160 0.0 10131165
14:30+36вюв11110 0.0 10093055
17:30+35юз12110 0.0 10083001
20:30+26з47330 0.0 1011173
8 марта, пн
пн823:30+24зсз33310 0.0 101243
02:30+22зюз01330 0.0 101023
05:30+21сз12310 0.0 101023
08:30+26св24240 0.0 1014277
11:30+33всв43140 0.0 10131126
14:30+36юв22120 0.0 10093423
17:30+35юв11110 0.0 10083371
20:30+26з47280 0.0 1011158
9 марта, вт
вт923:30+24ююв12330 0.0 101227
02:30+23зсз22300 0.0 101123
05:30+22всв12300 0.0 101123
08:30+26всв11230 0.0 1014198
11:30+34ююв44140 0.0 10131419
14:30+37ююв22110 0.0 10093753
17:30+34з64170 0.0 10092164
20:30+26з343815 0.0 101294
10 марта, ср
ср1023:30+23ююв11408 0.0 101223
02:30+23сз22340 0.0 101124
05:30+22вюв33350 0.0 101135
08:30+27ююв11280 0.0 1014138
11:30+34всв33140 0.0 10131734
14:30+36в11130 0.0 10093642
17:30+35ссз12130 0.0 10083187
20:30+26зюз37340 0.0 1010175